| time (UTC) | temp C | wind direction | speed KPH | gust KPH | rain 1hr cm | rain 24hr cm | rain mn cm | humidity % | barometer mb |
| 20260902204604 | 16 | 263 | 3.2 | 9.7 | 0.00 | 0.00 | 0.00 | 73 | 1019.6 |
| 20260902204056 | 16 | 265 | 3.2 | 9.7 | 0.00 | 0.00 | 0.00 | 73 | 1019.6 |
| 20260902203556 | 16 | 269 | 3.2 | 9.7 | 0.00 | 0.00 | 0.00 | 72 | 1019.6 |
| 20260902203058 | 16 | 270 | 4.8 | 11.3 | 0.00 | 0.00 | 0.00 | 72 | 1019.5 |
| 20260902202557 | 16 | 263 | 4.8 | 11.3 | 0.00 | 0.00 | 0.00 | 72 | 1019.5 |
| 20260902202057 | 16 | 273 | 6.4 | 12.9 | 0.00 | 0.00 | 0.00 | 72 | 1019.5 |
| 20260902201606 | 16 | 255 | 6.4 | 12.9 | 0.00 | 0.00 | 0.00 | 73 | 1019.5 |
| 20260902201056 | 15 | 265 | 6.4 | 12.9 | 0.00 | 0.00 | 0.00 | 74 | 1019.5 |
| 20260902200557 | 15 | 256 | 6.4 | 11.3 | 0.00 | 0.00 | 0.00 | 75 | 1019.6 |
| 20260902200105 | 15 | 259 | 4.8 | 11.3 | 0.00 | 0.00 | 0.00 | 74 | 1019.5 |
| 20260902195557 | 15 | 247 | 4.8 | 11.3 | 0.00 | 0.00 | 0.00 | 74 | 1019.4 |
| 20260902195056 | 15 | 248 | 4.8 | 11.3 | 0.00 | 0.00 | 0.00 | 74 | 1019.3 |
| 20260902194605 | 15 | 242 | 3.2 | 8.0 | 0.00 | 0.00 | 0.00 | 74 | 1019.3 |
| 20260902194056 | 16 | 240 | 3.2 | 8.0 | 0.00 | 0.00 | 0.00 | 75 | 1019.3 |
| 20260902193557 | 16 | 239 | 3.2 | 11.3 | 0.00 | 0.00 | 0.00 | 74 | 1019.3 |
| 20260902193108 | 16 | 236 | 4.8 | 11.3 | 0.00 | 0.00 | 0.00 | 74 | 1019.3 |
| 20260902192559 | 16 | 233 | 3.2 | 8.0 | 0.00 | 0.00 | 0.00 | 74 | 1019.2 |
| 20260902192056 | 16 | 230 | 3.2 | 8.0 | 0.00 | 0.00 | 0.00 | 74 | 1019.3 |
| 20260902191634 | 16 | 230 | 4.8 | 8.0 | 0.00 | 0.00 | 0.00 | 74 | 1019.2 |
| 20260902191059 | 16 | 230 | 3.2 | 6.4 | 0.00 | 0.00 | 0.00 | 73 | 1019.2 |
| 20260902190558 | 16 | 232 | 3.2 | 6.4 | 0.00 | 0.00 | 0.00 | 73 | 1019.1 |
| 20260902185558 | 16 | 236 | 1.6 | 6.4 | 0.00 | 0.00 | 0.00 | 74 | 1019.1 |
| 20260902185101 | 16 | 236 | 3.2 | 6.4 | 0.00 | 0.00 | 0.00 | 73 | 1019.1 |
| 20260902184558 | 16 | 236 | 3.2 | 6.4 | 0.00 | 0.00 | 0.00 | 73 | 1018.9 |
| 20260902184056 | 16 | 236 | 3.2 | 6.4 | 0.00 | 0.00 | 0.00 | 72 | 1018.9 |
| 20260902183559 | 17 | 236 | 3.2 | 6.4 | 0.00 | 0.00 | 0.00 | 71 | 1018.9 |
| 20260902183127 | 17 | 237 | 3.2 | 8.0 | 0.00 | 0.00 | 0.00 | 70 | 1018.8 |
| 20260902182555 | 17 | 237 | 3.2 | 8.0 | 0.00 | 0.00 | 0.00 | 69 | 1018.8 |
| 20260902182056 | 17 | 238 | 3.2 | 8.0 | 0.00 | 0.00 | 0.00 | 68 | 1018.7 |
| 20260902181612 | 17 | 241 | 4.8 | 8.0 | 0.00 | 0.00 | 0.00 | 67 | 1018.7 |
| 20260902181055 | 18 | 246 | 4.8 | 8.0 | 0.00 | 0.00 | 0.00 | 66 | 1018.7 |
| 20260902180556 | 18 | 248 | 3.2 | 8.0 | 0.00 | 0.00 | 0.00 | 66 | 1018.7 |
| 20260902180104 | 18 | 248 | 3.2 | 8.0 | 0.00 | 0.00 | 0.00 | 65 | 1018.7 |
| 20260902175557 | 18 | 248 | 3.2 | 8.0 | 0.00 | 0.00 | 0.00 | 64 | 1018.7 |
| 20260902175057 | 18 | 248 | 3.2 | 6.4 | 0.00 | 0.00 | 0.00 | 63 | 1018.7 |
| 20260902174611 | 19 | 248 | 3.2 | 8.0 | 0.00 | 0.00 | 0.00 | 61 | 1018.6 |
| 20260902174057 | 19 | 248 | 3.2 | 12.9 | 0.00 | 0.00 | 0.00 | 60 | 1018.6 |
| 20260902173558 | 19 | 248 | 4.8 | 12.9 | 0.00 | 0.00 | 0.00 | 60 | 1018.5 |
| 20260902173113 | 19 | 252 | 6.4 | 14.5 | 0.00 | 0.00 | 0.00 | 59 | 1018.6 |
| 20260902172558 | 20 | 265 | 6.4 | 16.1 | 0.00 | 0.00 | 0.00 | 59 | 1018.6 |
| 20260902172058 | 20 | 252 | 6.4 | 16.1 | 0.00 | 0.00 | 0.00 | 59 | 1018.6 |
| 20260902171619 | 20 | 270 | 6.4 | 17.7 | 0.00 | 0.00 | 0.00 | 58 | 1018.5 |
| 20260902171058 | 20 | 244 | 8.0 | 17.7 | 0.00 | 0.00 | 0.00 | 57 | 1018.5 |
| 20260902170557 | 20 | 276 | 8.0 | 16.1 | 0.00 | 0.00 | 0.00 | 57 | 1018.5 |
| 20260902170103 | 20 | 256 | 6.4 | 20.9 | 0.00 | 0.00 | 0.00 | 57 | 1018.5 |
| 20260902165558 | 20 | 265 | 8.0 | 20.9 | 0.00 | 0.00 | 0.00 | 56 | 1018.5 |
| 20260902165058 | 20 | 261 | 9.7 | 16.1 | 0.00 | 0.00 | 0.00 | 56 | 1018.4 |
| 20260902164611 | 20 | 264 | 4.8 | 16.1 | 0.00 | 0.00 | 0.00 | 56 | 1018.4 |
| 20260902164057 | 20 | 267 | 8.0 | 22.5 | 0.00 | 0.00 | 0.00 | 55 | 1018.5 |
| 20260902163557 | 21 | 242 | 8.0 | 22.5 | 0.00 | 0.00 | 0.00 | 54 | 1018.4 |
| 20260902163106 | 21 | 271 | 9.7 | 22.5 | 0.00 | 0.00 | 0.00 | 54 | 1018.5 |
| 20260902162557 | 21 | 256 | 9.7 | 17.7 | 0.00 | 0.00 | 0.00 | 53 | 1018.4 |
| 20260902162058 | 21 | 274 | 9.7 | 17.7 | 0.00 | 0.00 | 0.00 | 55 | 1018.5 |
| 20260902161606 | 21 | 257 | 6.4 | 16.1 | 0.00 | 0.00 | 0.00 | 53 | 1018.5 |
| 20260902161057 | 21 | 260 | 6.4 | 17.7 | 0.00 | 0.00 | 0.00 | 53 | 1018.5 |
| 20260902160557 | 21 | 284 | 9.7 | 17.7 | 0.00 | 0.00 | 0.00 | 53 | 1018.5 |
| 20260902160116 | 21 | 267 | 8.0 | 20.9 | 0.00 | 0.00 | 0.00 | 53 | 1018.5 |
| 20260902155557 | 21 | 236 | 8.0 | 20.9 | 0.00 | 0.00 | 0.00 | 54 | 1018.5 |
| 20260902155057 | 21 | 246 | 11.3 | 20.9 | 0.00 | 0.00 | 0.00 | 53 | 1018.5 |
| 20260902154609 | 21 | 260 | 12.9 | 22.5 | 0.00 | 0.00 | 0.00 | 52 | 1018.5 |
| 20260902154103 | 21 | 243 | 11.3 | 22.5 | 0.00 | 0.00 | 0.00 | 52 | 1018.5 |
| 20260902153557 | 22 | 270 | 8.0 | 17.7 | 0.00 | 0.00 | 0.00 | 53 | 1018.5 |
| 20260902153101 | 22 | 243 | 3.2 | 22.5 | 0.00 | 0.00 | 0.00 | 53 | 1018.5 |
| 20260902152557 | 22 | 246 | 11.3 | 22.5 | 0.00 | 0.00 | 0.00 | 53 | 1018.6 |
| 20260902152059 | 22 | 246 | 11.3 | 22.5 | 0.00 | 0.00 | 0.00 | 53 | 1018.6 |
| 20260902151601 | 22 | 259 | 12.9 | 19.3 | 0.00 | 0.00 | 0.00 | 52 | 1018.6 |
| 20260902151057 | 22 | 279 | 6.4 | 14.5 | 0.00 | 0.00 | 0.00 | 53 | 1018.6 |
| 20260902150556 | 22 | 249 | 6.4 | 14.5 | 0.00 | 0.00 | 0.00 | 55 | 1018.7 |
| 20260902150109 | 21 | 288 | 3.2 | 14.5 | 0.00 | 0.00 | 0.00 | 56 | 1018.7 |
| 20260902145621 | 21 | 339 | 8.0 | 14.5 | 0.00 | 0.00 | 0.00 | 55 | 1018.7 |
| 20260902145057 | 21 | 284 | 6.4 | 14.5 | 0.00 | 0.00 | 0.00 | 56 | 1018.7 |
| 20260902144605 | 21 | 269 | 4.8 | 12.9 | 0.00 | 0.00 | 0.00 | 57 | 1018.8 |
| 20260902144057 | 21 | 263 | 6.4 | 14.5 | 0.00 | 0.00 | 0.00 | 58 | 1018.9 |
| 20260902143558 | 21 | 261 | 3.2 | 14.5 | 0.00 | 0.00 | 0.00 | 59 | 1018.9 |
| 20260902143109 | 21 | 282 | 1.6 | 16.1 | 0.00 | 0.00 | 0.00 | 61 | 1018.9 |
| 20260902142557 | 21 | 296 | 6.4 | 17.7 | 0.00 | 0.00 | 0.00 | 60 | 1019.0 |
| 20260902142057 | 21 | 332 | 9.7 | 17.7 | 0.00 | 0.00 | 0.00 | 60 | 1019.0 |
| 20260902141602 | 21 | 352 | 3.2 | 12.9 | 0.00 | 0.00 | 0.00 | 62 | 1019.1 |
| 20260902141057 | 21 | 302 | 4.8 | 14.5 | 0.00 | 0.00 | 0.00 | 62 | 1019.0 |
| 20260902140558 | 21 | 309 | 4.8 | 14.5 | 0.00 | 0.00 | 0.00 | 62 | 1019.0 |
| 20260902140100 | 21 | 340 | 3.2 | 14.5 | 0.00 | 0.00 | 0.00 | 61 | 1018.9 |
| 20260902135556 | 21 | 0 | 3.2 | 14.5 | 0.00 | 0.00 | 0.00 | 63 | 1019.0 |
| 20260902135057 | 21 | 254 | 6.4 | 16.1 | 0.00 | 0.00 | 0.00 | 62 | 1019.1 |
| 20260902134606 | 21 | 261 | 8.0 | 19.3 | 0.00 | 0.00 | 0.00 | 61 | 1018.9 |
| 20260902134057 | 21 | 257 | 11.3 | 19.3 | 0.00 | 0.00 | 0.00 | 61 | 1019.0 |
| 20260902133557 | 21 | 247 | 6.4 | 17.7 | 0.00 | 0.00 | 0.00 | 62 | 1019.0 |
| 20260902133108 | 21 | 291 | 6.4 | 17.7 | 0.00 | 0.00 | 0.00 | 64 | 1019.1 |
| 20260902132558 | 21 | 252 | 4.8 | 16.1 | 0.00 | 0.00 | 0.00 | 63 | 1019.2 |
| 20260902132057 | 21 | 0 | 6.4 | 16.1 | 0.00 | 0.00 | 0.00 | 64 | 1019.2 |
| 20260902131602 | 21 | 279 | 8.0 | 19.3 | 0.00 | 0.00 | 0.00 | 63 | 1019.2 |
| 20260902131058 | 21 | 224 | 4.8 | 19.3 | 0.00 | 0.00 | 0.00 | 64 | 1019.2 |
| 20260902130556 | 21 | 235 | 9.7 | 17.7 | 0.00 | 0.00 | 0.00 | 63 | 1019.2 |
| 20260902130105 | 21 | 239 | 8.0 | 17.7 | 0.00 | 0.00 | 0.00 | 66 | 1019.2 |
| 20260902125556 | 20 | 215 | 9.7 | 17.7 | 0.00 | 0.00 | 0.00 | 66 | 1019.4 |
| 20260902125100 | 20 | 247 | 8.0 | 19.3 | 0.00 | 0.00 | 0.00 | 69 | 1019.4 |
| 20260902124604 | 20 | 229 | 12.9 | 20.9 | 0.00 | 0.00 | 0.00 | 68 | 1019.5 |
| 20260902124100 | 20 | 222 | 12.9 | 20.9 | 0.00 | 0.00 | 0.00 | 67 | 1019.6 |
| 20260902123557 | 21 | 236 | 6.4 | 16.1 | 0.00 | 0.00 | 0.00 | 68 | 1019.5 |
| 20260902123107 | 20 | 360 | 6.4 | 17.7 | 0.00 | 0.00 | 0.00 | 68 | 1019.5 |
| 20260902122559 | 20 | 232 | 9.7 | 17.7 | 0.00 | 0.00 | 0.00 | 68 | 1019.5 |
| 20260902122056 | 20 | 252 | 11.3 | 19.3 | 0.00 | 0.00 | 0.00 | 68 | 1019.5 |
| 20260902121600 | 20 | 250 | 11.3 | 19.3 | 0.00 | 0.00 | 0.00 | 71 | 1019.6 |
| 20260902121058 | 20 | 278 | 9.7 | 19.3 | 0.00 | 0.00 | 0.00 | 70 | 1019.5 |
| 20260902120558 | 20 | 279 | 9.7 | 19.3 | 0.00 | 0.00 | 0.00 | 70 | 1019.5 |
| 20260902120059 | 20 | 247 | 9.7 | 20.9 | 0.00 | 0.00 | 0.00 | 72 | 1019.6 |
| 20260902115556 | 19 | 273 | 12.9 | 20.9 | 0.00 | 0.00 | 0.00 | 72 | 1019.6 |
| 20260902115056 | 19 | 268 | 12.9 | 20.9 | 0.00 | 0.00 | 0.00 | 72 | 1019.6 |
| 20260902114606 | 18 | 254 | 8.0 | 17.7 | 0.00 | 0.00 | 0.00 | 74 | 1019.6 |
| 20260902114058 | 18 | 286 | 9.7 | 19.3 | 0.00 | 0.00 | 0.00 | 74 | 1019.6 |
| 20260902113556 | 18 | 302 | 4.8 | 19.3 | 0.00 | 0.00 | 0.00 | 75 | 1019.7 |
| 20260902113106 | 18 | 275 | 11.3 | 19.3 | 0.00 | 0.00 | 0.00 | 75 | 1019.7 |
| 20260902112558 | 18 | 274 | 9.7 | 19.3 | 0.00 | 0.00 | 0.00 | 76 | 1019.7 |
| 20260902112057 | 18 | 266 | 6.4 | 19.3 | 0.00 | 0.00 | 0.00 | 77 | 1019.7 |
| 20260902111607 | 18 | 256 | 8.0 | 19.3 | 0.00 | 0.00 | 0.00 | 75 | 1019.7 |
| 20260902111057 | 18 | 282 | 9.7 | 19.3 | 0.00 | 0.00 | 0.00 | 73 | 1019.7 |
| 20260902110557 | 19 | 243 | 12.9 | 22.5 | 0.00 | 0.00 | 0.00 | 71 | 1019.7 |
| 20260902110103 | 20 | 262 | 9.7 | 22.5 | 0.00 | 0.00 | 0.00 | 71 | 1019.7 |
| 20260902105556 | 20 | 232 | 11.3 | 22.5 | 0.00 | 0.00 | 0.00 | 70 | 1019.8 |
| 20260902105056 | 20 | 278 | 8.0 | 19.3 | 0.00 | 0.00 | 0.00 | 71 | 1019.7 |
| 20260902104615 | 20 | 261 | 8.0 | 19.3 | 0.00 | 0.00 | 0.00 | 70 | 1019.8 |
| 20260902104056 | 19 | 265 | 8.0 | 19.3 | 0.00 | 0.00 | 0.00 | 72 | 1019.8 |
| 20260902103556 | 18 | 273 | 4.8 | 16.1 | 0.00 | 0.00 | 0.00 | 72 | 1019.8 |
| 20260902103105 | 18 | 235 | 6.4 | 19.3 | 0.00 | 0.00 | 0.00 | 72 | 1019.9 |
| 20260902102558 | 18 | 250 | 9.7 | 19.3 | 0.00 | 0.00 | 0.00 | 72 | 1019.8 |
| 20260902102058 | 18 | 247 | 6.4 | 14.5 | 0.00 | 0.00 | 0.00 | 72 | 1019.9 |
| 20260902101600 | 18 | 242 | 4.8 | 12.9 | 0.00 | 0.00 | 0.00 | 72 | 1019.9 |
| 20260902101057 | 18 | 254 | 6.4 | 16.1 | 0.00 | 0.00 | 0.00 | 72 | 1019.9 |
| 20260902100557 | 19 | 229 | 4.8 | 19.3 | 0.00 | 0.00 | 0.00 | 72 | 1019.9 |
| 20260902100101 | 20 | 219 | 3.2 | 19.3 | 0.00 | 0.00 | 0.00 | 72 | 1019.8 |
| 20260902095557 | 20 | 228 | 9.7 | 19.3 | 0.00 | 0.00 | 0.00 | 71 | 1019.9 |
| 20260902095056 | 19 | 269 | 6.4 | 12.9 | 0.00 | 0.00 | 0.00 | 76 | 1019.8 |
| 20260902094607 | 18 | 196 | 6.4 | 11.3 | 0.00 | 0.00 | 0.00 | 80 | 1019.9 |
| 20260902094057 | 17 | 185 | 1.6 | 4.8 | 0.00 | 0.00 | 0.00 | 81 | 1019.8 |
| 20260902093600 | 17 | 0 | 1.6 | 4.8 | 0.00 | 0.00 | 0.00 | 81 | 1019.9 |
| 20260902093106 | 17 | 185 | 1.6 | 4.8 | 0.00 | 0.00 | 0.00 | 81 | 1019.9 |
| 20260902092557 | 17 | 185 | 0.0 | 8.0 | 0.00 | 0.00 | 0.00 | 82 | 1019.9 |
| 20260902092100 | 17 | 185 | 1.6 | 8.0 | 0.00 | 0.00 | 0.00 | 82 | 1019.8 |
| 20260902091603 | 16 | 185 | 1.6 | 6.4 | 0.00 | 0.00 | 0.00 | 84 | 1019.9 |
| 20260902091057 | 16 | 185 | 0.0 | 6.4 | 0.00 | 0.00 | 0.00 | 85 | 1019.8 |
| 20260902090557 | 16 | 185 | 3.2 | 6.4 | 0.00 | 0.00 | 0.00 | 85 | 1019.8 |
| 20260902090120 | 16 | 185 | 1.6 | 6.4 | 0.00 | 0.00 | 0.00 | 86 | 1019.9 |
| 20260902085557 | 16 | 185 | 3.2 | 6.4 | 0.00 | 0.00 | 0.00 | 86 | 1019.9 |
| 20260902085056 | 16 | 185 | 1.6 | 6.4 | 0.00 | 0.00 | 0.00 | 87 | 1019.9 |
| 20260902084604 | 15 | 185 | 1.6 | 6.4 | 0.00 | 0.00 | 0.00 | 88 | 1019.9 |
| 20260902084057 | 15 | 185 | 1.6 | 6.4 | 0.00 | 0.00 | 0.00 | 87 | 1020.0 |
| 20260902083557 | 15 | 189 | 1.6 | 4.8 | 0.00 | 0.00 | 0.00 | 87 | 1019.9 |
| 20260902083106 | 15 | 189 | 1.6 | 6.4 | 0.00 | 0.00 | 0.00 | 87 | 1020.0 |
| 20260902082600 | 15 | 189 | 0.0 | 6.4 | 0.00 | 0.00 | 0.00 | 89 | 1020.0 |
| 20260902082057 | 15 | 0 | 1.6 | 6.4 | 0.00 | 0.00 | 0.00 | 89 | 1020.0 |
| 20260902081601 | 15 | 189 | 1.6 | 6.4 | 0.00 | 0.00 | 0.00 | 89 | 1020.0 |
| 20260902081057 | 15 | 188 | 1.6 | 8.0 | 0.00 | 0.00 | 0.00 | 90 | 1020.1 |
| 20260902080557 | 15 | 188 | 1.6 | 8.0 | 0.00 | 0.00 | 0.00 | 90 | 1019.9 |
| 20260902080059 | 15 | 188 | 1.6 | 8.0 | 0.00 | 0.00 | 0.00 | 90 | 1020.0 |
| 20260902075556 | 14 | 190 | 1.6 | 8.0 | 0.00 | 0.00 | 0.00 | 91 | 1019.9 |
| 20260902075058 | 14 | 185 | 1.6 | 6.4 | 0.00 | 0.00 | 0.00 | 92 | 1019.9 |
| 20260902074613 | 14 | 178 | 1.6 | 6.4 | 0.00 | 0.00 | 0.00 | 92 | 1019.9 |
| 20260902074056 | 13 | 178 | 0.0 | 6.4 | 0.00 | 0.00 | 0.00 | 93 | 1019.8 |
| 20260902073558 | 13 | 178 | 1.6 | 8.0 | 0.00 | 0.00 | 0.00 | 93 | 1019.8 |
| 20260902073104 | 13 | 178 | 1.6 | 8.0 | 0.00 | 0.00 | 0.00 | 93 | 1019.8 |
| 20260902072556 | 13 | 178 | 0.0 | 8.0 | 0.00 | 0.00 | 0.00 | 94 | 1019.8 |
| 20260902072056 | 13 | 178 | 1.6 | 8.0 | 0.00 | 0.00 | 0.00 | 94 | 1019.8 |
| 20260902071606 | 13 | 188 | 4.8 | 12.9 | 0.00 | 0.00 | 0.00 | 94 | 1019.8 |
| 20260902071057 | 13 | 187 | 3.2 | 12.9 | 0.00 | 0.00 | 0.00 | 94 | 1019.9 |
| 20260902070556 | 13 | 169 | 3.2 | 12.9 | 0.00 | 0.00 | 0.00 | 94 | 1019.8 |
| 20260902070105 | 13 | 165 | 3.2 | 12.9 | 0.00 | 0.00 | 0.00 | 94 | 1019.8 |
| 20260902065557 | 13 | 160 | 4.8 | 12.9 | 0.00 | 0.20 | 0.00 | 94 | 1019.8 |
| 20260902065058 | 12 | 169 | 3.2 | 11.3 | 0.00 | 0.20 | 0.00 | 95 | 1019.8 |
| 20260902064601 | 12 | 178 | 4.8 | 14.5 | 0.00 | 0.20 | 0.00 | 95 | 1019.9 |
| 20260902064056 | 12 | 165 | 6.4 | 14.5 | 0.00 | 0.20 | 0.00 | 95 | 1019.8 |
| 20260902063556 | 12 | 177 | 1.6 | 14.5 | 0.00 | 0.20 | 0.00 | 95 | 1019.8 |
| 20260902063103 | 12 | 171 | 6.4 | 14.5 | 0.00 | 0.20 | 0.00 | 95 | 1019.8 |
| 20260902062555 | 12 | 167 | 4.8 | 12.9 | 0.00 | 0.20 | 0.00 | 95 | 1019.8 |
| 20260902062100 | 12 | 173 | 4.8 | 11.3 | 0.00 | 0.20 | 0.00 | 95 | 1019.8 |
| 20260902061101 | 12 | 187 | 4.8 | 11.3 | 0.00 | 0.20 | 0.00 | 95 | 1019.8 |
| 20260902060555 | 12 | 161 | 4.8 | 11.3 | 0.00 | 0.20 | 0.00 | 95 | 1019.9 |
| 20260902055556 | 12 | 168 | 4.8 | 11.3 | 0.00 | 0.20 | 0.00 | 95 | 1019.9 |
| 20260902055057 | 12 | 173 | 3.2 | 11.3 | 0.00 | 0.20 | 0.00 | 95 | 1019.8 |
| 20260902054641 | 12 | 172 | 4.8 | 9.7 | 0.00 | 0.20 | 0.00 | 95 | 1019.9 |
| 20260902054056 | 12 | 167 | 3.2 | 9.7 | 0.00 | 0.20 | 0.00 | 95 | 1019.8 |
| 20260902053556 | 12 | 163 | 4.8 | 9.7 | 0.00 | 0.20 | 0.00 | 95 | 1019.8 |
| 20260902053108 | 11 | 165 | 3.2 | 8.0 | 0.00 | 0.20 | 0.00 | 95 | 1019.9 |
| 20260902052556 | 11 | 165 | 1.6 | 9.7 | 0.00 | 0.20 | 0.00 | 95 | 1019.8 |
| 20260902052056 | 11 | 165 | 1.6 | 9.7 | 0.00 | 0.20 | 0.00 | 95 | 1019.8 |
| 20260902051602 | 11 | 167 | 3.2 | 9.7 | 0.00 | 0.20 | 0.00 | 96 | 1019.8 |
| 20260902051056 | 11 | 167 | 3.2 | 9.7 | 0.00 | 0.20 | 0.00 | 95 | 1019.8 |
| 20260902050556 | 11 | 170 | 1.6 | 9.7 | 0.00 | 0.20 | 0.00 | 95 | 1019.9 |
| 20260902045556 | 11 | 171 | 3.2 | 9.7 | 0.00 | 0.20 | 0.00 | 95 | 1019.8 |
| 20260902045058 | 11 | 169 | 3.2 | 9.7 | 0.00 | 0.20 | 0.00 | 95 | 1019.8 |
| 20260902044611 | 11 | 171 | 4.8 | 11.3 | 0.00 | 0.20 | 0.00 | 95 | 1019.8 |
| 20260902044057 | 11 | 171 | 4.8 | 11.3 | 0.00 | 0.20 | 0.00 | 95 | 1019.8 |
| 20260902043556 | 11 | 173 | 4.8 | 9.7 | 0.00 | 0.20 | 0.00 | 95 | 1019.8 |
| 20260902043109 | 11 | 172 | 6.4 | 11.3 | 0.00 | 0.20 | 0.00 | 95 | 1019.8 |
| 20260902042556 | 11 | 0 | 4.8 | 11.3 | 0.00 | 0.20 | 0.00 | 95 | 1019.8 |
| 20260902042056 | 11 | 167 | 4.8 | 9.7 | 0.00 | 0.20 | 0.00 | 95 | 1019.9 |
| 20260902041603 | 11 | 167 | 4.8 | 9.7 | 0.00 | 0.20 | 0.00 | 95 | 1019.9 |
| 20260902041056 | 11 | 192 | 1.6 | 6.4 | 0.00 | 0.20 | 0.00 | 95 | 1019.9 |
| 20260902040558 | 10 | 0 | 1.6 | 4.8 | 0.00 | 0.20 | 0.00 | 95 | 1019.9 |
| 20260902040107 | 10 | 214 | 1.6 | 4.8 | 0.00 | 0.20 | 0.00 | 94 | 1019.9 |
| 20260902035556 | 10 | 0 | 0.0 | 4.8 | 0.00 | 0.20 | 0.00 | 94 | 1019.9 |
| 20260902035058 | 10 | 0 | 0.0 | 3.2 | 0.00 | 0.20 | 0.00 | 94 | 1019.9 |
| 20260902034606 | 10 | 0 | 0.0 | 0.0 | 0.00 | 0.20 | 0.00 | 94 | 1019.9 |
| 20260902034056 | 10 | 0 | 0.0 | 0.0 | 0.00 | 0.20 | 0.00 | 93 | 1020.0 |
| 20260902033600 | 10 | 0 | 0.0 | 0.0 | 0.00 | 0.20 | 0.00 | 93 | 1020.0 |
| 20260902033101 | 10 | 0 | 0.0 | 0.0 | 0.00 | 0.20 | 0.00 | 93 | 1020.0 |
| 20260902032557 | 10 | 0 | 0.0 | 0.0 | 0.00 | 0.20 | 0.00 | 93 | 1020.1 |
| 20260902032056 | 10 | 0 | 0.0 | 0.0 | 0.00 | 0.20 | 0.00 | 93 | 1020.0 |
| 20260902031608 | 10 | 0 | 0.0 | 0.0 | 0.00 | 0.20 | 0.00 | 93 | 1020.1 |
| 20260902031058 | 10 | 0 | 0.0 | 0.0 | 0.00 | 0.20 | 0.00 | 93 | 1020.1 |
| 20260902030556 | 10 | 0 | 0.0 | 0.0 | 0.00 | 0.20 | 0.00 | 93 | 1020.1 |
| 20260902030104 | 10 | 0 | 0.0 | 0.0 | 0.00 | 0.20 | 0.00 | 93 | 1020.2 |
| 20260902025557 | 10 | 0 | 0.0 | 0.0 | 0.00 | 0.20 | 0.00 | 93 | 1020.2 |
| 20260902025057 | 10 | 0 | 0.0 | 0.0 | 0.00 | 0.20 | 0.00 | 93 | 1020.2 |
| 20260902024605 | 10 | 0 | 0.0 | 0.0 | 0.00 | 0.20 | 0.00 | 93 | 1020.2 |
| 20260902024056 | 10 | 0 | 0.0 | 0.0 | 0.00 | 0.20 | 0.00 | 93 | 1020.2 |
| 20260902023557 | 10 | 0 | 0.0 | 0.0 | 0.00 | 0.20 | 0.00 | 93 | 1020.2 |
| 20260902023110 | 10 | 0 | 0.0 | 0.0 | 0.00 | 0.20 | 0.00 | 92 | 1020.2 |
| 20260902022557 | 10 | 0 | 0.0 | 0.0 | 0.00 | 0.20 | 0.00 | 92 | 1020.2 |
| 20260902022057 | 10 | 0 | 0.0 | 0.0 | 0.00 | 0.20 | 0.00 | 92 | 1020.2 |
| 20260902021603 | 10 | 0 | 0.0 | 0.0 | 0.00 | 0.20 | 0.00 | 92 | 1020.3 |
| 20260902021059 | 10 | 0 | 0.0 | 0.0 | 0.00 | 0.20 | 0.00 | 92 | 1020.2 |
| 20260902020602 | 10 | 0 | 0.0 | 0.0 | 0.00 | 0.20 | 0.00 | 92 | 1020.2 |
| 20260902020105 | 10 | 0 | 0.0 | 0.0 | 0.00 | 0.20 | 0.00 | 92 | 1020.0 |
| 20260902015557 | 10 | 0 | 0.0 | 0.0 | 0.00 | 0.20 | 0.00 | 92 | 1019.9 |
| 20260902015058 | 11 | 0 | 0.0 | 0.0 | 0.00 | 0.20 | 0.00 | 92 | 1019.9 |
| 20260902014600 | 11 | 0 | 0.0 | 0.0 | 0.00 | 0.20 | 0.00 | 92 | 1019.9 |
| 20260902014057 | 11 | 0 | 0.0 | 0.0 | 0.00 | 0.20 | 0.00 | 92 | 1019.9 |
| 20260902013558 | 11 | 0 | 0.0 | 0.0 | 0.00 | 0.20 | 0.00 | 92 | 1019.9 |
| 20260902013106 | 11 | 0 | 0.0 | 0.0 | 0.00 | 0.20 | 0.00 | 92 | 1019.9 |
| 20260902012600 | 11 | 0 | 0.0 | 0.0 | 0.00 | 0.20 | 0.00 | 92 | 1019.8 |
| 20260902012057 | 11 | 0 | 0.0 | 0.0 | 0.00 | 0.20 | 0.00 | 92 | 1019.8 |
| 20260902011601 | 11 | 0 | 0.0 | 0.0 | 0.00 | 0.20 | 0.00 | 92 | 1019.8 |
| 20260902011058 | 11 | 0 | 0.0 | 0.0 | 0.00 | 0.20 | 0.00 | 92 | 1019.9 |
| 20260902010557 | 11 | 0 | 0.0 | 0.0 | 0.00 | 0.20 | 0.00 | 92 | 1019.9 |
| 20260902010112 | 11 | 0 | 0.0 | 0.0 | 0.00 | 0.20 | 0.00 | 92 | 1019.9 |
| 20260902005558 | 11 | 0 | 0.0 | 0.0 | 0.00 | 0.20 | 0.00 | 92 | 1019.9 |
| 20260902005059 | 11 | 0 | 0.0 | 0.0 | 0.00 | 0.20 | 0.00 | 93 | 1020.0 |
| 20260902004607 | 11 | 0 | 0.0 | 0.0 | 0.00 | 0.20 | 0.00 | 93 | 1020.1 |
| 20260902004058 | 12 | 0 | 0.0 | 0.0 | 0.00 | 0.20 | 0.00 | 93 | 1020.1 |
| 20260902003558 | 12 | 0 | 0.0 | 0.0 | 0.00 | 0.20 | 0.00 | 93 | 1020.2 |
| 20260902003106 | 12 | 0 | 0.0 | 0.0 | 0.00 | 0.20 | 0.00 | 93 | 1020.2 |
| 20260902002600 | 12 | 0 | 0.0 | 0.0 | 0.00 | 0.20 | 0.00 | 93 | 1020.3 |
| 20260902002057 | 12 | 0 | 0.0 | 3.2 | 0.00 | 0.20 | 0.00 | 93 | 1020.3 |
| 20260902001621 | 12 | 0 | 0.0 | 4.8 | 0.00 | 0.20 | 0.00 | 93 | 1020.4 |
| 20260902001059 | 12 | 248 | 0.0 | 4.8 | 0.00 | 0.20 | 0.00 | 93 | 1020.4 |
| 20260902000557 | 12 | 0 | 1.6 | 4.8 | 0.00 | 0.20 | 0.00 | 93 | 1020.3 |
| 20260902000108 | 12 | 248 | 1.6 | 4.8 | 0.00 | 0.20 | 0.00 | 93 | 1020.3 |
| 20260901235557 | 12 | 248 | 0.0 | 4.8 | 0.00 | 0.20 | 0.00 | 93 | 1020.2 |
| 20260901235058 | 12 | 248 | 1.6 | 4.8 | 0.00 | 0.20 | 0.00 | 93 | 1020.3 |
| 20260901234604 | 12 | 0 | 0.0 | 1.6 | 0.00 | 0.20 | 0.00 | 93 | 1020.2 |
| 20260901234057 | 12 | 0 | 0.0 | 3.2 | 0.00 | 0.20 | 0.00 | 93 | 1020.3 |
| 20260901233556 | 12 | 0 | 0.0 | 3.2 | 0.00 | 0.20 | 0.00 | 93 | 1020.2 |
| 20260901233105 | 12 | 0 | 0.0 | 4.8 | 0.00 | 0.20 | 0.00 | 93 | 1020.2 |
| 20260901232558 | 12 | 248 | 0.0 | 4.8 | 0.00 | 0.20 | 0.00 | 93 | 1020.3 |
| 20260901232057 | 12 | 248 | 1.6 | 4.8 | 0.00 | 0.20 | 0.00 | 93 | 1020.3 |
| 20260901231607 | 12 | 248 | 1.6 | 4.8 | 0.00 | 0.20 | 0.00 | 93 | 1020.3 |
| 20260901231056 | 12 | 0 | 0.0 | 3.2 | 0.00 | 0.20 | 0.00 | 92 | 1020.2 |
| 20260901230557 | 12 | 0 | 0.0 | 3.2 | 0.00 | 0.20 | 0.00 | 92 | 1020.2 |
| 20260901230058 | 13 | 248 | 1.6 | 3.2 | 0.00 | 0.20 | 0.00 | 92 | 1020.2 |
| 20260901225557 | 13 | 248 | 1.6 | 3.2 | 0.00 | 0.20 | 0.00 | 92 | 1020.2 |
| 20260901225056 | 13 | 248 | 1.6 | 4.8 | 0.00 | 0.20 | 0.00 | 92 | 1020.2 |
| 20260901224602 | 13 | 248 | 0.0 | 4.8 | 0.00 | 0.20 | 0.00 | 91 | 1020.2 |
| 20260901224056 | 13 | 248 | 1.6 | 4.8 | 0.00 | 0.20 | 0.00 | 91 | 1020.2 |
| 20260901223556 | 13 | 248 | 3.2 | 6.4 | 0.00 | 0.20 | 0.00 | 91 | 1020.1 |
| 20260901223059 | 13 | 248 | 3.2 | 6.4 | 0.00 | 0.20 | 0.00 | 91 | 1020.1 |
| 20260901222555 | 13 | 248 | 1.6 | 6.4 | 0.00 | 0.20 | 0.00 | 91 | 1020.1 |
| 20260901222059 | 13 | 248 | 1.6 | 6.4 | 0.00 | 0.20 | 0.00 | 91 | 1020.2 |
| 20260901221618 | 13 | 248 | 3.2 | 6.4 | 0.00 | 0.20 | 0.00 | 91 | 1020.2 |
| 20260901221056 | 13 | 249 | 3.2 | 6.4 | 0.00 | 0.20 | 0.00 | 90 | 1020.2 |
| 20260901220556 | 13 | 249 | 1.6 | 6.4 | 0.00 | 0.20 | 0.00 | 90 | 1020.1 |
| 20260901220116 | 14 | 249 | 3.2 | 8.0 | 0.00 | 0.20 | 0.00 | 90 | 1020.1 |
| 20260901215557 | 14 | 249 | 3.2 | 8.0 | 0.00 | 0.20 | 0.20 | 89 | 1020.1 |
| 20260901215057 | 14 | 250 | 1.6 | 8.0 | 0.00 | 0.20 | 0.20 | 89 | 1020.1 |
| 20260901214604 | 14 | 246 | 1.6 | 8.0 | 0.00 | 0.20 | 0.20 | 89 | 1020.1 |
| 20260901214056 | 14 | 248 | 3.2 | 8.0 | 0.00 | 0.20 | 0.20 | 88 | 1020.1 |
| 20260901213557 | 15 | 246 | 3.2 | 11.3 | 0.00 | 0.20 | 0.20 | 88 | 1020.2 |
| 20260901213107 | 15 | 245 | 3.2 | 11.3 | 0.00 | 0.20 | 0.20 | 88 | 1020.2 |
| 20260901212558 | 15 | 234 | 1.6 | 11.3 | 0.00 | 0.20 | 0.20 | 88 | 1020.1 |
| 20260901212057 | 15 | 234 | 3.2 | 12.9 | 0.00 | 0.20 | 0.20 | 87 | 1020.1 |
| 20260901211600 | 15 | 240 | 3.2 | 12.9 | 0.00 | 0.20 | 0.20 | 87 | 1020.1 |
| 20260901211057 | 15 | 0 | 6.4 | 12.9 | 0.00 | 0.20 | 0.20 | 87 | 1020.0 |
| 20260901210555 | 15 | 252 | 6.4 | 12.9 | 0.00 | 0.20 | 0.20 | 86 | 1020.0 |
| 20260901210107 | 15 | 244 | 6.4 | 14.5 | 0.00 | 0.20 | 0.20 | 86 | 1020.0 |
| 20260901205555 | 15 | 253 | 4.8 | 14.5 | 0.00 | 0.20 | 0.20 | 86 | 1020.0 |
| 20260901205058 | 15 | 246 | 6.4 | 14.5 | 0.00 | 0.20 | 0.20 | 86 | 1020.0 |